Simultaneous Nadir Overpasses (SNOs) Predictions

Prediction of SNOs between NOAA-19 and NPP Satellite Orbit:

Table of predicted SNOs for the next 14.0 days since TLE Epoch: 7/4/2020
Index Date (NOAA-19) Time (NOAA-19) Lat,Lon (NOAA-19) SZA (NOAA-19 ) Date (NPP) Time (NPP) Lat,Lon (NPP) SZA (NPP ) Distance(km) Time Diff (sec)
1 07/17/2020 01:04:18 -79.10, -49.55 119.96 07/17/2020 01:05:29 -79.13, -47.87 120.16 35.48 71
2 07/17/2020 01:55:08 79.23, 118.87 60.03 07/17/2020 01:56:17 79.22, 118.76 60.00 2.51 69
3 07/17/2020 02:46:15 -79.21, -74.10 119.97 07/17/2020 02:47:02 -79.23, -74.02 119.98 3.35 47
4 07/17/2020 03:37:09 79.22, 93.25 60.04 07/17/2020 03:37:47 79.22, 93.37 60.01 2.57 38
5 07/17/2020 04:28:15 -79.22, -99.45 119.96 07/17/2020 04:28:32 -79.23, -99.41 119.96 1.47 17
6 07/17/2020 05:19:09 79.23, 67.91 60.05 07/17/2020 05:19:17 79.22, 67.98 60.03 1.87 8
7 07/17/2020 06:10:15 -79.24,-124.80 119.95 07/17/2020 06:10:02 -79.24,-124.80 119.95 0.44 13
8 07/17/2020 07:01:09 79.25, 42.56 60.06 07/17/2020 07:00:47 79.23, 42.59 60.04 2.75 22
9 07/17/2020 07:52:15 -79.26,-150.15 119.94 07/17/2020 07:51:32 -79.24,-150.19 119.93 2.29 43
10 07/17/2020 08:43:10 79.24, 16.94 60.07 07/17/2020 08:42:18 79.26, 16.94 60.12 2.92 52
11 07/17/2020 09:34:16 -79.24,-175.77 119.93 07/17/2020 09:33:03 -79.28,-175.84 119.86 3.74 73
